owner,sensor,date,latitude,longitude,vertical_datum,wind_speed,wind_to_direction,wind_speed_of_gust,qcFlag 
LUMCON,ioos:station:LUMCON:102:1,2016-12-01T00:00:00Z,29.1870,-90.6093,0.0,8.4,19.0,-9999.0,'1111122,1111122,1111122' 
LUMCON,ioos:station:LUMCON:102:1,2016-12-01T00:15:00Z,29.1870,-90.6093,0.0,8.5,12.0,-9999.0,'1111122,1111122,1111122' 
LUMCON,ioos:station:LUMCON:102:1,2016-12-01T00:30:00Z,29.1870,-90.6093,0.0,9.7,24.0,-9999.0,'1111122,1111122,1111122' 
LUMCON,ioos:station:LUMCON:102:1,2016-12-01T00:45:00Z,29.1870,-90.6093,0.0,7.7,10.0,-9999.0,'1111122,1111122,1111122' 
LUMCON,ioos:station:LUMCON:102:1,2016-12-01T01:00:00Z,29.1870,-90.6093,0.0,9.4,13.0,-9999.0,'1111122,1111122,1111122' 
LUMCON,ioos:station:LUMCON:102:1,2016-12-01T01:15:00Z,29.1870,-90.6093,0.0,7.3,12.0,-9999.0,'1111122,1111122,1111122' 
LUMCON,ioos:station:LUMCON:102:1,2016-12-01T01:30:00Z,29.1870,-90.6093,0.0,8.4,19.0,-9999.0,'1111122,1111122,1111122' 
LUMCON,ioos:station:LUMCON:102:1,2016-12-01T01:45:00Z,29.1870,-90.6093,0.0,7.1,31.0,-9999.0,'1111122,1111122,1111122' 
LUMCON,ioos:station:LUMCON:102:1,2016-12-01T02:00:00Z,29.1870,-90.6093,0.0,6.5,17.0,-9999.0,'1111122,1111122,1111122' 
LUMCON,ioos:station:LUMCON:102:1,2016-12-01T02:15:00Z,29.1870,-90.6093,0.0,5.1,10.0,-9999.0,'1111122,1111122,1111122' 
LUMCON,ioos:station:LUMCON:102:1,2016-12-01T02:30:00Z,29.1870,-90.6093,0.0,6.5,11.0,-9999.0,'1111122,1111122,1111122' 
LUMCON,ioos:station:LUMCON:102:1,2016-12-01T02:45:00Z,29.1870,-90.6093,0.0,6.2,16.0,-9999.0,'1111122,1111122,1111122' 
LUMCON,ioos:station:LUMCON:102:1,2016-12-01T03:00:00Z,29.1870,-90.6093,0.0,6.1,358.0,-9999.0,'1111122,1111122,1111122' 
LUMCON,ioos:station:LUMCON:102:1,2016-12-01T03:15:00Z,29.1870,-90.6093,0.0,6.2,7.0,-9999.0,'1111122,1111122,1111122' 
LUMCON,ioos:station:LUMCON:102:1,2016-12-01T03:30:00Z,29.1870,-90.6093,0.0,6.8,5.0,-9999.0,'1111122,1111122,1111122' 
LUMCON,ioos:station:LUMCON:102:1,2016-12-01T03:45:00Z,29.1870,-90.6093,0.0,5.6,357.0,-9999.0,'1111122,1111122,1111122' 
LUMCON,ioos:station:LUMCON:102:1,2016-12-01T04:00:00Z,29.1870,-90.6093,0.0,5.6,6.0,-9999.0,'1111122,1111122,1111122' 
LUMCON,ioos:station:LUMCON:102:1,2016-12-01T04:15:00Z,29.1870,-90.6093,0.0,5.8,2.0,-9999.0,'1111122,1111122,1111122' 
LUMCON,ioos:station:LUMCON:102:1,2016-12-01T04:30:00Z,29.1870,-90.6093,0.0,5.4,353.0,-9999.0,'1111122,1111122,1111122' 
LUMCON,ioos:station:LUMCON:102:1,2016-12-01T04:45:00Z,29.1870,-90.6093,0.0,5.9,4.0,-9999.0,'1111122,1111122,1111122' 
LUMCON,ioos:station:LUMCON:102:1,2016-12-01T05:00:00Z,29.1870,-90.6093,0.0,6.5,8.0,-9999.0,'1111122,1111122,1111122' 
LUMCON,ioos:station:LUMCON:102:1,2016-12-01T05:15:00Z,29.1870,-90.6093,0.0,6.5,358.0,-9999.0,'1111122,1111122,1111122' 
LUMCON,ioos:station:LUMCON:102:1,2016-12-01T05:30:00Z,29.1870,-90.6093,0.0,6.3,355.0,-9999.0,'1111122,1111122,1111122' 
LUMCON,ioos:station:LUMCON:102:1,2016-12-01T05:45:00Z,29.1870,-90.6093,0.0,6.2,357.0,-9999.0,'1111122,1111122,1111122' 
LUMCON,ioos:station:LUMCON:102:1,2016-12-01T06:00:00Z,29.1870,-90.6093,0.0,6.6,1.0,-9999.0,'1111122,1111122,1111122' 
LUMCON,ioos:station:LUMCON:102:1,2016-12-01T06:15:00Z,29.1870,-90.6093,0.0,10.9,11.0,-9999.0,'1111122,1111122,1111122' 
LUMCON,ioos:station:LUMCON:102:1,2016-12-01T06:30:00Z,29.1870,-90.6093,0.0,10.5,2.0,-9999.0,'1111122,1111122,1111122' 
LUMCON,ioos:station:LUMCON:102:1,2016-12-01T06:45:00Z,29.1870,-90.6093,0.0,9.0,357.0,-9999.0,'1111122,1111122,1111122' 
LUMCON,ioos:station:LUMCON:102:1,2016-12-01T07:00:00Z,29.1870,-90.6093,0.0,8.5,4.0,-9999.0,'1111122,1111122,1111122' 
LUMCON,ioos:station:LUMCON:102:1,2016-12-01T07:15:00Z,29.1870,-90.6093,0.0,9.6,359.0,-9999.0,'1111122,1111122,1111122' 
LUMCON,ioos:station:LUMCON:102:1,2016-12-01T07:30:00Z,29.1870,-90.6093,0.0,11.3,2.0,-9999.0,'1111122,1111122,1111122' 
LUMCON,ioos:station:LUMCON:102:1,2016-12-01T07:45:00Z,29.1870,-90.6093,0.0,11.4,7.0,-9999.0,'1111122,1111122,1111122' 
LUMCON,ioos:station:LUMCON:102:1,2016-12-01T08:00:00Z,29.1870,-90.6093,0.0,10.6,25.0,-9999.0,'1111122,1111122,1111122' 
LUMCON,ioos:station:LUMCON:102:1,2016-12-01T08:15:00Z,29.1870,-90.6093,0.0,9.7,18.0,-9999.0,'1111122,1111122,1111122' 
LUMCON,ioos:station:LUMCON:102:1,2016-12-01T08:30:00Z,29.1870,-90.6093,0.0,9.3,16.0,-9999.0,'1111122,1111122,1111122' 
LUMCON,ioos:station:LUMCON:102:1,2016-12-01T08:45:00Z,29.1870,-90.6093,0.0,8.8,28.0,-9999.0,'1111122,1111122,1111122' 
LUMCON,ioos:station:LUMCON:102:1,2016-12-01T09:00:00Z,29.1870,-90.6093,0.0,8.6,25.0,-9999.0,'1111122,1111122,1111122' 
LUMCON,ioos:station:LUMCON:102:1,2016-12-01T09:15:00Z,29.1870,-90.6093,0.0,11.1,31.0,-9999.0,'1111122,1111122,1111122' 
LUMCON,ioos:station:LUMCON:102:1,2016-12-01T09:30:00Z,29.1870,-90.6093,0.0,11.7,30.0,-9999.0,'1111122,1111122,1111122' 
LUMCON,ioos:station:LUMCON:102:1,2016-12-01T09:45:00Z,29.1870,-90.6093,0.0,9.6,26.0,-9999.0,'1111122,1111122,1111122' 
LUMCON,ioos:station:LUMCON:102:1,2016-12-01T10:00:00Z,29.1870,-90.6093,0.0,12.5,36.0,-9999.0,'1111122,1111122,1111122' 
LUMCON,ioos:station:LUMCON:102:1,2016-12-01T10:15:00Z,29.1870,-90.6093,0.0,12.9,30.0,-9999.0,'1111122,1111122,1111122' 
LUMCON,ioos:station:LUMCON:102:1,2016-12-01T10:30:00Z,29.1870,-90.6093,0.0,10.2,31.0,-9999.0,'1111122,1111122,1111122' 
LUMCON,ioos:station:LUMCON:102:1,2016-12-01T10:45:00Z,29.1870,-90.6093,0.0,11.6,41.0,-9999.0,'1111122,1111122,1111122' 
LUMCON,ioos:station:LUMCON:102:1,2016-12-01T11:00:00Z,29.1870,-90.6093,0.0,11.5,29.0,-9999.0,'1111122,1111122,1111122' 
LUMCON,ioos:station:LUMCON:102:1,2016-12-01T11:15:00Z,29.1870,-90.6093,0.0,11.1,41.0,-9999.0,'1111122,1111122,1111122' 
LUMCON,ioos:station:LUMCON:102:1,2016-12-01T11:30:00Z,29.1870,-90.6093,0.0,11.1,36.0,-9999.0,'1111122,1111122,1111122' 
LUMCON,ioos:station:LUMCON:102:1,2016-12-01T11:45:00Z,29.1870,-90.6093,0.0,11.0,54.0,-9999.0,'1111122,1111122,1111122' 
LUMCON,ioos:station:LUMCON:102:1,2016-12-01T12:00:00Z,29.1870,-90.6093,0.0,9.1,44.0,-9999.0,'1111122,1111122,1111122' 
LUMCON,ioos:station:LUMCON:102:1,2016-12-01T12:15:00Z,29.1870,-90.6093,0.0,9.1,46.0,-9999.0,'1111122,1111122,1111122' 
LUMCON,ioos:station:LUMCON:102:1,2016-12-01T12:30:00Z,29.1870,-90.6093,0.0,9.8,46.0,-9999.0,'1111122,1111122,1111122' 
LUMCON,ioos:station:LUMCON:102:1,2016-12-01T12:45:00Z,29.1870,-90.6093,0.0,9.2,42.0,-9999.0,'1111122,1111122,1111122' 
LUMCON,ioos:station:LUMCON:102:1,2016-12-01T13:00:00Z,29.1870,-90.6093,0.0,11.0,47.0,-9999.0,'1111122,1111122,1111122' 
LUMCON,ioos:station:LUMCON:102:1,2016-12-01T13:15:00Z,29.1870,-90.6093,0.0,12.3,48.0,-9999.0,'1111122,1111122,1111122' 
LUMCON,ioos:station:LUMCON:102:1,2016-12-01T13:30:00Z,29.1870,-90.6093,0.0,12.1,44.0,-9999.0,'1111122,1111122,1111122' 
LUMCON,ioos:station:LUMCON:102:1,2016-12-01T13:45:00Z,29.1870,-90.6093,0.0,12.2,47.0,-9999.0,'1111122,1111122,1111122' 
LUMCON,ioos:station:LUMCON:102:1,2016-12-01T14:00:00Z,29.1870,-90.6093,0.0,12.9,49.0,-9999.0,'1111122,1111122,1111122' 
LUMCON,ioos:station:LUMCON:102:1,2016-12-01T14:15:00Z,29.1870,-90.6093,0.0,12.0,61.0,-9999.0,'1111122,1111122,1111122' 
LUMCON,ioos:station:LUMCON:102:1,2016-12-01T14:30:00Z,29.1870,-90.6093,0.0,11.5,47.0,-9999.0,'1111122,1111122,1111122' 
LUMCON,ioos:station:LUMCON:102:1,2016-12-01T14:45:00Z,29.1870,-90.6093,0.0,10.0,56.0,-9999.0,'1111122,1111122,1111122' 
LUMCON,ioos:station:LUMCON:102:1,2016-12-01T15:00:00Z,29.1870,-90.6093,0.0,10.4,56.0,-9999.0,'1111122,1111122,1111122' 
LUMCON,ioos:station:LUMCON:102:1,2016-12-01T15:15:00Z,29.1870,-90.6093,0.0,9.2,63.0,-9999.0,'1111122,1111122,1111122' 
LUMCON,ioos:station:LUMCON:102:1,2016-12-01T15:30:00Z,29.1870,-90.6093,0.0,8.3,63.0,-9999.0,'1111122,1111122,1111122' 
LUMCON,ioos:station:LUMCON:102:1,2016-12-01T15:45:00Z,29.1870,-90.6093,0.0,9.8,62.0,-9999.0,'1111122,1111122,1111122' 
LUMCON,ioos:station:LUMCON:102:1,2016-12-01T16:00:00Z,29.1870,-90.6093,0.0,8.8,57.0,-9999.0,'1111122,1111122,1111122' 
LUMCON,ioos:station:LUMCON:102:1,2016-12-01T16:15:00Z,29.1870,-90.6093,0.0,9.2,54.0,-9999.0,'1111122,1111122,1111122' 
LUMCON,ioos:station:LUMCON:102:1,2016-12-01T16:30:00Z,29.1870,-90.6093,0.0,8.4,60.0,-9999.0,'1111122,1111122,1111122' 
LUMCON,ioos:station:LUMCON:102:1,2016-12-01T16:45:00Z,29.1870,-90.6093,0.0,8.1,61.0,-9999.0,'1111122,1111122,1111122' 
LUMCON,ioos:station:LUMCON:102:1,2016-12-01T17:00:00Z,29.1870,-90.6093,0.0,7.2,64.0,-9999.0,'1111122,1111122,1111122' 
LUMCON,ioos:station:LUMCON:102:1,2016-12-01T17:15:00Z,29.1870,-90.6093,0.0,6.2,73.0,-9999.0,'1111122,1111122,1111122' 
LUMCON,ioos:station:LUMCON:102:1,2016-12-01T17:30:00Z,29.1870,-90.6093,0.0,6.5,66.0,-9999.0,'1111122,1111122,1111122' 
LUMCON,ioos:station:LUMCON:102:1,2016-12-01T17:45:00Z,29.1870,-90.6093,0.0,6.1,75.0,-9999.0,'1111122,1111122,1111122' 
LUMCON,ioos:station:LUMCON:102:1,2016-12-01T18:00:00Z,29.1870,-90.6093,0.0,6.1,67.0,-9999.0,'1111122,1111122,1111122' 
LUMCON,ioos:station:LUMCON:102:1,2016-12-01T18:15:00Z,29.1870,-90.6093,0.0,5.7,75.0,-9999.0,'1111122,1111122,1111122' 
LUMCON,ioos:station:LUMCON:102:1,2016-12-01T18:30:00Z,29.1870,-90.6093,0.0,4.4,79.0,-9999.0,'1111122,1111122,1111122' 
LUMCON,ioos:station:LUMCON:102:1,2016-12-01T18:45:00Z,29.1870,-90.6093,0.0,5.0,75.0,-9999.0,'1111122,1111122,1111122' 
LUMCON,ioos:station:LUMCON:102:1,2016-12-01T19:00:00Z,29.1870,-90.6093,0.0,6.5,68.0,-9999.0,'1111122,1111122,1111122' 
LUMCON,ioos:station:LUMCON:102:1,2016-12-01T19:15:00Z,29.1870,-90.6093,0.0,7.1,63.0,-9999.0,'1111122,1111122,1111122' 
LUMCON,ioos:station:LUMCON:102:1,2016-12-01T19:30:00Z,29.1870,-90.6093,0.0,5.3,74.0,-9999.0,'1111122,1111122,1111122' 
LUMCON,ioos:station:LUMCON:102:1,2016-12-01T19:45:00Z,29.1870,-90.6093,0.0,5.2,69.0,-9999.0,'1111122,1111122,1111122' 
LUMCON,ioos:station:LUMCON:102:1,2016-12-01T20:00:00Z,29.1870,-90.6093,0.0,5.4,68.0,-9999.0,'1111122,1111122,1111122' 
LUMCON,ioos:station:LUMCON:102:1,2016-12-01T20:15:00Z,29.1870,-90.6093,0.0,5.5,77.0,-9999.0,'1111122,1111122,1111122' 
LUMCON,ioos:station:LUMCON:102:1,2016-12-01T20:30:00Z,29.1870,-90.6093,0.0,6.5,69.0,-9999.0,'1111122,1111122,1111122' 
LUMCON,ioos:station:LUMCON:102:1,2016-12-01T20:45:00Z,29.1870,-90.6093,0.0,6.1,76.0,-9999.0,'1111122,1111122,1111122' 
LUMCON,ioos:station:LUMCON:102:1,2016-12-01T21:00:00Z,29.1870,-90.6093,0.0,5.6,84.0,-9999.0,'1111122,1111122,1111122' 
LUMCON,ioos:station:LUMCON:102:1,2016-12-01T21:15:00Z,29.1870,-90.6093,0.0,6.1,80.0,-9999.0,'1111122,1111122,1111122' 
LUMCON,ioos:station:LUMCON:102:1,2016-12-01T21:30:00Z,29.1870,-90.6093,0.0,5.9,76.0,-9999.0,'1111122,1111122,1111122' 
LUMCON,ioos:station:LUMCON:102:1,2016-12-01T21:45:00Z,29.1870,-90.6093,0.0,6.2,67.0,-9999.0,'1111122,1111122,1111122' 
LUMCON,ioos:station:LUMCON:102:1,2016-12-01T22:00:00Z,29.1870,-90.6093,0.0,6.8,76.0,-9999.0,'1111122,1111122,1111122' 
LUMCON,ioos:station:LUMCON:102:1,2016-12-01T22:15:00Z,29.1870,-90.6093,0.0,5.7,73.0,-9999.0,'1111122,1111122,1111122' 
LUMCON,ioos:station:LUMCON:102:1,2016-12-01T22:30:00Z,29.1870,-90.6093,0.0,5.9,62.0,-9999.0,'1111122,1111122,1111122' 
LUMCON,ioos:station:LUMCON:102:1,2016-12-01T22:45:00Z,29.1870,-90.6093,0.0,5.4,75.0,-9999.0,'1111122,1111122,1111122' 
LUMCON,ioos:station:LUMCON:102:1,2016-12-01T23:00:00Z,29.1870,-90.6093,0.0,6.1,58.0,-9999.0,'1111122,1111122,1111122' 
LUMCON,ioos:station:LUMCON:102:1,2016-12-01T23:15:00Z,29.1870,-90.6093,0.0,6.7,61.0,-9999.0,'1111122,1111122,1111122' 
LUMCON,ioos:station:LUMCON:102:1,2016-12-01T23:30:00Z,29.1870,-90.6093,0.0,7.4,55.0,-9999.0,'1111122,1111122,1111122' 
LUMCON,ioos:station:LUMCON:102:1,2016-12-01T23:45:00Z,29.1870,-90.6093,0.0,6.7,62.0,-9999.0,'1111122,1111122,1111122' 
LUMCON,ioos:station:LUMCON:102:1,2016-12-02T00:00:00Z,29.1870,-90.6093,0.0,6.3,55.0,-9999.0,'1111122,1111122,1111122' 
LUMCON,ioos:station:LUMCON:102:1,2016-12-02T00:15:00Z,29.1870,-90.6093,0.0,6.7,61.0,-9999.0,'1111122,1111122,1111122' 
LUMCON,ioos:station:LUMCON:102:1,2016-12-02T00:30:00Z,29.1870,-90.6093,0.0,6.7,58.0,-9999.0,'1111122,1111122,1111122' 
LUMCON,ioos:station:LUMCON:102:1,2016-12-02T00:45:00Z,29.1870,-90.6093,0.0,4.8,59.0,-9999.0,'1111122,1111122,1111122' 
LUMCON,ioos:station:LUMCON:102:1,2016-12-02T01:00:00Z,29.1870,-90.6093,0.0,5.1,65.0,-9999.0,'1111122,1111122,1111122' 
LUMCON,ioos:station:LUMCON:102:1,2016-12-02T01:15:00Z,29.1870,-90.6093,0.0,4.7,70.0,-9999.0,'1111122,1111122,1111122' 
LUMCON,ioos:station:LUMCON:102:1,2016-12-02T01:30:00Z,29.1870,-90.6093,0.0,5.9,78.0,-9999.0,'1111122,1111122,1111122' 
LUMCON,ioos:station:LUMCON:102:1,2016-12-02T01:45:00Z,29.1870,-90.6093,0.0,6.3,89.0,-9999.0,'1111122,1111122,1111122' 
LUMCON,ioos:station:LUMCON:102:1,2016-12-02T02:00:00Z,29.1870,-90.6093,0.0,5.0,84.0,-9999.0,'1111122,1111122,1111122' 
LUMCON,ioos:station:LUMCON:102:1,2016-12-02T02:15:00Z,29.1870,-90.6093,0.0,6.9,100.0,-9999.0,'1111122,1111122,1111122' 
LUMCON,ioos:station:LUMCON:102:1,2016-12-02T02:30:00Z,29.1870,-90.6093,0.0,5.9,92.0,-9999.0,'1111122,1111122,1111122' 
LUMCON,ioos:station:LUMCON:102:1,2016-12-02T02:45:00Z,29.1870,-90.6093,0.0,6.0,94.0,-9999.0,'1111122,1111122,1111122' 
LUMCON,ioos:station:LUMCON:102:1,2016-12-02T03:00:00Z,29.1870,-90.6093,0.0,7.5,85.0,-9999.0,'1111122,1111122,1111122' 
LUMCON,ioos:station:LUMCON:102:1,2016-12-02T03:15:00Z,29.1870,-90.6093,0.0,6.6,79.0,-9999.0,'1111122,1111122,1111122' 
LUMCON,ioos:station:LUMCON:102:1,2016-12-02T03:30:00Z,29.1870,-90.6093,0.0,5.1,92.0,-9999.0,'1111122,1111122,1111122' 
LUMCON,ioos:station:LUMCON:102:1,2016-12-02T03:45:00Z,29.1870,-90.6093,0.0,5.6,94.0,-9999.0,'1111122,1111122,1111122' 
LUMCON,ioos:station:LUMCON:102:1,2016-12-02T04:00:00Z,29.1870,-90.6093,0.0,5.6,81.0,-9999.0,'1111122,1111122,1111122' 
LUMCON,ioos:station:LUMCON:102:1,2016-12-02T04:15:00Z,29.1870,-90.6093,0.0,6.4,90.0,-9999.0,'1111122,1111122,1111122' 
LUMCON,ioos:station:LUMCON:102:1,2016-12-02T04:30:00Z,29.1870,-90.6093,0.0,6.8,88.0,-9999.0,'1111122,1111122,1111122' 
LUMCON,ioos:station:LUMCON:102:1,2016-12-02T04:45:00Z,29.1870,-90.6093,0.0,5.4,81.0,-9999.0,'1111122,1111122,1111122' 
LUMCON,ioos:station:LUMCON:102:1,2016-12-02T05:00:00Z,29.1870,-90.6093,0.0,5.6,73.0,-9999.0,'1111122,1111122,1111122' 
LUMCON,ioos:station:LUMCON:102:1,2016-12-02T05:15:00Z,29.1870,-90.6093,0.0,6.5,82.0,-9999.0,'1111122,1111122,1111122' 
LUMCON,ioos:station:LUMCON:102:1,2016-12-02T05:30:00Z,29.1870,-90.6093,0.0,5.6,68.0,-9999.0,'1111122,1111122,1111122' 
LUMCON,ioos:station:LUMCON:102:1,2016-12-02T05:45:00Z,29.1870,-90.6093,0.0,7.8,63.0,-9999.0,'1111122,1111122,1111122' 
LUMCON,ioos:station:LUMCON:102:1,2016-12-02T06:00:00Z,29.1870,-90.6093,0.0,6.8,64.0,-9999.0,'1111122,1111122,1111122' 
LUMCON,ioos:station:LUMCON:102:1,2016-12-02T06:15:00Z,29.1870,-90.6093,0.0,7.6,68.0,-9999.0,'1111122,1111122,1111122' 
LUMCON,ioos:station:LUMCON:102:1,2016-12-02T06:30:00Z,29.1870,-90.6093,0.0,7.6,59.0,-9999.0,'1111122,1111122,1111122' 
LUMCON,ioos:station:LUMCON:102:1,2016-12-02T06:45:00Z,29.1870,-90.6093,0.0,8.5,62.0,-9999.0,'1111122,1111122,1111122' 
LUMCON,ioos:station:LUMCON:102:1,2016-12-02T07:00:00Z,29.1870,-90.6093,0.0,7.7,63.0,-9999.0,'1111122,1111122,1111122' 
LUMCON,ioos:station:LUMCON:102:1,2016-12-02T07:15:00Z,29.1870,-90.6093,0.0,8.0,61.0,-9999.0,'1111122,1111122,1111122' 
LUMCON,ioos:station:LUMCON:102:1,2016-12-02T07:30:00Z,29.1870,-90.6093,0.0,7.4,62.0,-9999.0,'1111122,1111122,1111122' 
LUMCON,ioos:station:LUMCON:102:1,2016-12-02T07:45:00Z,29.1870,-90.6093,0.0,7.7,67.0,-9999.0,'1111122,1111122,1111122' 
LUMCON,ioos:station:LUMCON:102:1,2016-12-02T08:00:00Z,29.1870,-90.6093,0.0,8.0,68.0,-9999.0,'1111122,1111122,1111122' 
LUMCON,ioos:station:LUMCON:102:1,2016-12-02T08:15:00Z,29.1870,-90.6093,0.0,8.1,70.0,-9999.0,'1111122,1111122,1111122' 
LUMCON,ioos:station:LUMCON:102:1,2016-12-02T08:30:00Z,29.1870,-90.6093,0.0,8.1,74.0,-9999.0,'1111122,1111122,1111122' 
LUMCON,ioos:station:LUMCON:102:1,2016-12-02T08:45:00Z,29.1870,-90.6093,0.0,8.1,78.0,-9999.0,'1111122,1111122,1111122' 
LUMCON,ioos:station:LUMCON:102:1,2016-12-02T09:00:00Z,29.1870,-90.6093,0.0,8.7,81.0,-9999.0,'1111122,1111122,1111122' 
LUMCON,ioos:station:LUMCON:102:1,2016-12-02T09:15:00Z,29.1870,-90.6093,0.0,7.7,65.0,-9999.0,'1111122,1111122,1111122' 
LUMCON,ioos:station:LUMCON:102:1,2016-12-02T09:30:00Z,29.1870,-90.6093,0.0,9.7,67.0,-9999.0,'1111122,1111122,1111122' 
LUMCON,ioos:station:LUMCON:102:1,2016-12-02T09:45:00Z,29.1870,-90.6093,0.0,9.5,69.0,-9999.0,'1111122,1111122,1111122' 
LUMCON,ioos:station:LUMCON:102:1,2016-12-02T10:00:00Z,29.1870,-90.6093,0.0,8.3,62.0,-9999.0,'1111122,1111122,1111122' 
LUMCON,ioos:station:LUMCON:102:1,2016-12-02T10:15:00Z,29.1870,-90.6093,0.0,7.7,69.0,-9999.0,'1111122,1111122,1111122' 
LUMCON,ioos:station:LUMCON:102:1,2016-12-02T10:30:00Z,29.1870,-90.6093,0.0,8.2,72.0,-9999.0,'1111122,1111122,1111122' 
LUMCON,ioos:station:LUMCON:102:1,2016-12-02T10:45:00Z,29.1870,-90.6093,0.0,9.4,78.0,-9999.0,'1111122,1111122,1111122' 
LUMCON,ioos:station:LUMCON:102:1,2016-12-02T11:00:00Z,29.1870,-90.6093,0.0,8.8,77.0,-9999.0,'1111122,1111122,1111122' 
LUMCON,ioos:station:LUMCON:102:1,2016-12-02T11:15:00Z,29.1870,-90.6093,0.0,9.4,80.0,-9999.0,'1111122,1111122,1111122' 
LUMCON,ioos:station:LUMCON:102:1,2016-12-02T11:30:00Z,29.1870,-90.6093,0.0,9.7,80.0,-9999.0,'1111122,1111122,1111122' 
LUMCON,ioos:station:LUMCON:102:1,2016-12-02T11:45:00Z,29.1870,-90.6093,0.0,9.5,78.0,-9999.0,'1111122,1111122,1111122' 
LUMCON,ioos:station:LUMCON:102:1,2016-12-02T12:00:00Z,29.1870,-90.6093,0.0,8.0,77.0,-9999.0,'1111122,1111122,1111122' 
LUMCON,ioos:station:LUMCON:102:1,2016-12-02T12:15:00Z,29.1870,-90.6093,0.0,9.5,82.0,-9999.0,'1111122,1111122,1111122' 
LUMCON,ioos:station:LUMCON:102:1,2016-12-02T12:30:00Z,29.1870,-90.6093,0.0,10.4,80.0,-9999.0,'1111122,1111122,1111122' 
LUMCON,ioos:station:LUMCON:102:1,2016-12-02T12:45:00Z,29.1870,-90.6093,0.0,10.6,76.0,-9999.0,'1111122,1111122,1111122' 
LUMCON,ioos:station:LUMCON:102:1,2016-12-02T13:00:00Z,29.1870,-90.6093,0.0,10.7,72.0,-9999.0,'1111122,1111122,1111122' 
LUMCON,ioos:station:LUMCON:102:1,2016-12-02T13:15:00Z,29.1870,-90.6093,0.0,10.6,73.0,-9999.0,'1111122,1111122,1111122' 
LUMCON,ioos:station:LUMCON:102:1,2016-12-02T13:30:00Z,29.1870,-90.6093,0.0,9.6,75.0,-9999.0,'1111122,1111122,1111122' 
LUMCON,ioos:station:LUMCON:102:1,2016-12-02T13:45:00Z,29.1870,-90.6093,0.0,10.6,79.0,-9999.0,'1111122,1111122,1111122' 
LUMCON,ioos:station:LUMCON:102:1,2016-12-02T14:00:00Z,29.1870,-90.6093,0.0,8.8,87.0,-9999.0,'1111122,1111122,1111122' 
LUMCON,ioos:station:LUMCON:102:1,2016-12-02T14:15:00Z,29.1870,-90.6093,0.0,8.9,88.0,-9999.0,'1111122,1111122,1111122' 
LUMCON,ioos:station:LUMCON:102:1,2016-12-02T14:30:00Z,29.1870,-90.6093,0.0,10.1,84.0,-9999.0,'1111122,1111122,1111122' 
LUMCON,ioos:station:LUMCON:102:1,2016-12-02T14:45:00Z,29.1870,-90.6093,0.0,9.3,86.0,-9999.0,'1111122,1111122,1111122' 
LUMCON,ioos:station:LUMCON:102:1,2016-12-02T15:00:00Z,29.1870,-90.6093,0.0,9.7,84.0,-9999.0,'1111122,1111122,1111122' 
LUMCON,ioos:station:LUMCON:102:1,2016-12-02T15:15:00Z,29.1870,-90.6093,0.0,10.5,81.0,-9999.0,'1111122,1111122,1111122' 
LUMCON,ioos:station:LUMCON:102:1,2016-12-02T15:30:00Z,29.1870,-90.6093,0.0,8.3,86.0,-9999.0,'1111122,1111122,1111122' 
LUMCON,ioos:station:LUMCON:102:1,2016-12-02T15:45:00Z,29.1870,-90.6093,0.0,8.7,80.0,-9999.0,'1111122,1111122,1111122' 
LUMCON,ioos:station:LUMCON:102:1,2016-12-02T16:00:00Z,29.1870,-90.6093,0.0,10.3,82.0,-9999.0,'1111122,1111122,1111122' 
LUMCON,ioos:station:LUMCON:102:1,2016-12-02T16:15:00Z,29.1870,-90.6093,0.0,9.9,83.0,-9999.0,'1111122,1111122,1111122' 
LUMCON,ioos:station:LUMCON:102:1,2016-12-02T16:30:00Z,29.1870,-90.6093,0.0,10.0,88.0,-9999.0,'1111122,1111122,1111122' 
LUMCON,ioos:station:LUMCON:102:1,2016-12-02T16:45:00Z,29.1870,-90.6093,0.0,10.9,85.0,-9999.0,'1111122,1111122,1111122' 
LUMCON,ioos:station:LUMCON:102:1,2016-12-02T17:00:00Z,29.1870,-90.6093,0.0,10.4,86.0,-9999.0,'1111122,1111122,1111122' 
LUMCON,ioos:station:LUMCON:102:1,2016-12-02T17:15:00Z,29.1870,-90.6093,0.0,8.4,82.0,-9999.0,'1111122,1111122,1111122' 
LUMCON,ioos:station:LUMCON:102:1,2016-12-02T17:30:00Z,29.1870,-90.6093,0.0,9.6,88.0,-9999.0,'1111122,1111122,1111122' 
LUMCON,ioos:station:LUMCON:102:1,2016-12-02T17:45:00Z,29.1870,-90.6093,0.0,9.6,87.0,-9999.0,'1111122,1111122,1111122' 
LUMCON,ioos:station:LUMCON:102:1,2016-12-02T18:00:00Z,29.1870,-90.6093,0.0,9.4,83.0,-9999.0,'1111122,1111122,1111122' 
LUMCON,ioos:station:LUMCON:102:1,2016-12-02T18:15:00Z,29.1870,-90.6093,0.0,10.9,83.0,-9999.0,'1111122,1111122,1111122' 
LUMCON,ioos:station:LUMCON:102:1,2016-12-02T18:30:00Z,29.1870,-90.6093,0.0,9.9,83.0,-9999.0,'1111122,1111122,1111122' 
LUMCON,ioos:station:LUMCON:102:1,2016-12-02T18:45:00Z,29.1870,-90.6093,0.0,10.4,84.0,-9999.0,'1111122,1111122,1111122' 
LUMCON,ioos:station:LUMCON:102:1,2016-12-02T19:00:00Z,29.1870,-90.6093,0.0,9.4,74.0,-9999.0,'1111122,1111122,1111122' 
LUMCON,ioos:station:LUMCON:102:1,2016-12-02T19:15:00Z,29.1870,-90.6093,0.0,10.9,75.0,-9999.0,'1111122,1111122,1111122' 
LUMCON,ioos:station:LUMCON:102:1,2016-12-02T19:30:00Z,29.1870,-90.6093,0.0,9.7,70.0,-9999.0,'1111122,1111122,1111122' 
LUMCON,ioos:station:LUMCON:102:1,2016-12-02T19:45:00Z,29.1870,-90.6093,0.0,9.9,69.0,-9999.0,'1111122,1111122,1111122' 
LUMCON,ioos:station:LUMCON:102:1,2016-12-02T20:00:00Z,29.1870,-90.6093,0.0,9.2,81.0,-9999.0,'1111122,1111122,1111122' 
LUMCON,ioos:station:LUMCON:102:1,2016-12-02T20:15:00Z,29.1870,-90.6093,0.0,10.2,80.0,-9999.0,'1111122,1111122,1111122' 
LUMCON,ioos:station:LUMCON:102:1,2016-12-02T20:30:00Z,29.1870,-90.6093,0.0,10.8,84.0,-9999.0,'1111122,1111122,1111122' 
LUMCON,ioos:station:LUMCON:102:1,2016-12-02T20:45:00Z,29.1870,-90.6093,0.0,10.4,86.0,-9999.0,'1111122,1111122,1111122' 
LUMCON,ioos:station:LUMCON:102:1,2016-12-02T21:00:00Z,29.1870,-90.6093,0.0,12.2,85.0,-9999.0,'1111122,1111122,1111122' 
LUMCON,ioos:station:LUMCON:102:1,2016-12-02T21:15:00Z,29.1870,-90.6093,0.0,10.8,75.0,-9999.0,'1111122,1111122,1111122' 
LUMCON,ioos:station:LUMCON:102:1,2016-12-02T21:30:00Z,29.1870,-90.6093,0.0,11.6,82.0,-9999.0,'1111122,1111122,1111122' 
LUMCON,ioos:station:LUMCON:102:1,2016-12-02T21:45:00Z,29.1870,-90.6093,0.0,10.1,80.0,-9999.0,'1111122,1111122,1111122' 
LUMCON,ioos:station:LUMCON:102:1,2016-12-02T22:00:00Z,29.1870,-90.6093,0.0,11.0,72.0,-9999.0,'1111122,1111122,1111122' 
LUMCON,ioos:station:LUMCON:102:1,2016-12-02T22:15:00Z,29.1870,-90.6093,0.0,11.8,74.0,-9999.0,'1111122,1111122,1111122' 
LUMCON,ioos:station:LUMCON:102:1,2016-12-02T22:30:00Z,29.1870,-90.6093,0.0,12.2,73.0,-9999.0,'1111122,1111122,1111122' 
LUMCON,ioos:station:LUMCON:102:1,2016-12-02T22:45:00Z,29.1870,-90.6093,0.0,11.1,79.0,-9999.0,'1111122,1111122,1111122' 
LUMCON,ioos:station:LUMCON:102:1,2016-12-02T23:00:00Z,29.1870,-90.6093,0.0,10.7,83.0,-9999.0,'1111122,1111122,1111122' 
LUMCON,ioos:station:LUMCON:102:1,2016-12-02T23:15:00Z,29.1870,-90.6093,0.0,11.0,77.0,-9999.0,'1111122,1111122,1111122' 
LUMCON,ioos:station:LUMCON:102:1,2016-12-02T23:30:00Z,29.1870,-90.6093,0.0,11.7,79.0,-9999.0,'1111122,1111122,1111122' 
LUMCON,ioos:station:LUMCON:102:1,2016-12-02T23:45:00Z,29.1870,-90.6093,0.0,9.4,69.0,-9999.0,'1111122,1111122,1111122' 
LUMCON,ioos:station:LUMCON:102:1,2016-12-03T00:00:00Z,29.1870,-90.6093,0.0,10.5,70.0,-9999.0,'1111122,1111122,1111122' 
LUMCON,ioos:station:LUMCON:102:1,2016-12-03T00:15:00Z,29.1870,-90.6093,0.0,9.4,68.0,-9999.0,'1111122,1111122,1111122' 
LUMCON,ioos:station:LUMCON:102:1,2016-12-03T00:30:00Z,29.1870,-90.6093,0.0,10.3,61.0,-9999.0,'1111122,1111122,1111122' 
LUMCON,ioos:station:LUMCON:102:1,2016-12-03T00:45:00Z,29.1870,-90.6093,0.0,8.5,68.0,-9999.0,'1111122,1111122,1111122' 
LUMCON,ioos:station:LUMCON:102:1,2016-12-03T01:00:00Z,29.1870,-90.6093,0.0,11.4,64.0,-9999.0,'1111122,1111122,1111122' 
LUMCON,ioos:station:LUMCON:102:1,2016-12-03T01:15:00Z,29.1870,-90.6093,0.0,10.1,79.0,-9999.0,'1111122,1111122,1111122' 
LUMCON,ioos:station:LUMCON:102:1,2016-12-03T01:30:00Z,29.1870,-90.6093,0.0,11.9,71.0,-9999.0,'1111122,1111122,1111122' 
LUMCON,ioos:station:LUMCON:102:1,2016-12-03T01:45:00Z,29.1870,-90.6093,0.0,11.7,72.0,-9999.0,'1111122,1111122,1111122' 